Albany, NY

11:13 AM EST on December 09, 2019 (GMT -0500)
Albany International

Weather History for KALB - August, 2019

Change the Weather History Date:

Sunday, August 11, 2019

  Actual Average Record
Temperature  
Mean Temperature 67 °F 71 °F  
Max Temperature 80 °F 81 °F 98 °F (1944)
Min Temperature 54 °F 61 °F 46 °F (1941)
Degree Days  
Heating Degree Days 0 0  
Month to date heating degree days 0 0  
Since 1 June heating degree days 27 57  
Since 1 July heating degree days 0 5  
Cooling Degree Days 2 6  
Month to date cooling degree days 83 75  
Year to date cooling degree days 589 441  
Since 1 June cooling degree days 567 411  
Growing Degree Days 17 (Base 50)    
Moisture  
Dew Point 54 °F    
Average Humidity 63    
Maximum Humidity 86    
Minimum Humidity 39    
Precipitation  
Precipitation 0.00 in 0.11 in 1.85 in (1955)
Month to date precipitation 1.66 1.36  
Year to date precipitation 26.52 24.05  
Sea Level Pressure  
Sea Level Pressure 29.98 in    
Wind  
Wind Speed 7 mph (WNW)    
Max Wind Speed 21 mph    
Max Gust Speed 27 mph    
Visibility 10 miles    
Events      
T = Trace of Precipitation, MM = Missing Value Source: NWS Daily Summary

Daily Weather History Graph

Daily Weather History Graph

Search for Another Location

Airport or City:

Astronomy

Aug. 11, 2019 Rise Set
Actual Time 5:57 AM EDT 8:03 PM EDT
Civil Twilight 5:26 AM EDT 8:33 PM EDT
Nautical Twilight 4:47 AM EDT 9:11 PM EDT
Astronomical Twilight 4:06 AM EDT 9:53 PM EDT
Moon 5:43 PM EDT (8/11) 2:12 AM EDT (8/11)
Length of Visible Light 15h 07m
Length of Day
14h 06m
Waxing Gibbous, 87% of the Moon is Illuminated
Aug 11
Waxing Gibbous
Aug 15
Full
Aug 23
Last Quarter
Aug 30
New
Sep 5
First Quarter

Hourly Weather History & Observations

Time (EDT) Temp. Heat Index Dew Point Humidity Pressure Visibility Wind Dir Wind Speed Gust Speed Precip Events Conditions
12:51 AM 57.0 °F - 53.1 °F 87% 29.94 in 10.0 mi Calm Calm - N/A   Partly Cloudy
1:51 AM 59.0 °F - 53.1 °F 81% 29.94 in 10.0 mi Calm Calm - N/A   Partly Cloudy
2:51 AM 55.9 °F - 52.0 °F 87% 29.94 in 10.0 mi Variable 3.5 mph - N/A   Clear
3:51 AM 59.0 °F - 52.0 °F 78% 29.95 in 10.0 mi Calm Calm - N/A   Partly Cloudy
4:51 AM 55.9 °F - 51.1 °F 84% 29.96 in 10.0 mi Calm Calm - N/A   Clear
5:51 AM 55.0 °F - 50.0 °F 83% 29.98 in 10.0 mi Calm Calm - N/A   Clear
6:51 AM 55.9 °F - 52.0 °F 87% 30.01 in 10.0 mi Calm Calm - N/A   Partly Cloudy
7:51 AM 62.1 °F - 55.0 °F 78% 30.01 in 10.0 mi Calm Calm - N/A   Partly Cloudy
8:51 AM 66.9 °F - 55.9 °F 68% 30.02 in 10.0 mi Calm Calm - N/A   Partly Cloudy
9:51 AM 70.0 °F - 57.0 °F 63% 30.01 in 10.0 mi NW 6.9 mph - N/A   Partly Cloudy
10:51 AM 73.0 °F - 54.0 °F 51% 30.01 in 10.0 mi NW 16.1 mph - N/A   Scattered Clouds
11:51 AM 75.0 °F - 54.0 °F 48% 30.01 in 10.0 mi NW 17.3 mph 26.5 mph N/A   Scattered Clouds
12:51 PM 78.1 °F - 55.9 °F 46% 29.99 in 10.0 mi WNW 16.1 mph 20.7 mph N/A   Mostly Cloudy
1:51 PM 75.9 °F - 54.0 °F 46% 29.99 in 10.0 mi WNW 12.7 mph 21.9 mph N/A   Mostly Cloudy
2:51 PM 79.0 °F - 55.0 °F 44% 29.97 in 10.0 mi NW 12.7 mph - N/A   Mostly Cloudy
3:51 PM 80.1 °F 80.0 °F 54.0 °F 40% 29.96 in 10.0 mi NW 13.8 mph 21.9 mph N/A   Mostly Cloudy
4:51 PM 79.0 °F - 54.0 °F 42% 29.96 in 10.0 mi WNW 15.0 mph - N/A   Mostly Cloudy
5:51 PM 78.1 °F - 53.1 °F 42% 29.96 in 10.0 mi West 15.0 mph 26.5 mph N/A   Scattered Clouds
6:51 PM 77.0 °F - 53.1 °F 43% 29.96 in 10.0 mi West 10.4 mph - N/A   Scattered Clouds
7:51 PM 73.9 °F - 53.1 °F 48% 29.96 in 10.0 mi West 9.2 mph - N/A   Partly Cloudy
8:51 PM 71.1 °F - 53.1 °F 53% 29.98 in 10.0 mi West 6.9 mph - N/A   Partly Cloudy
9:51 PM 69.1 °F - 53.1 °F 57% 29.98 in 10.0 mi Calm Calm - N/A   Partly Cloudy
10:51 PM 64.9 °F - 54.0 °F 68% 29.98 in 10.0 mi Calm Calm - N/A   Partly Cloudy
11:51 PM 64.0 °F - 54.0 °F 70% 29.98 in 10.0 mi Calm Calm - N/A   Partly Cloudy